Regional Weather Roundup
Issued by NWS Mt. Holly, NJ

Home | Current Version | Previous Version | Text Only | Print | Product List | Glossary On
Versions: 1 2 3 4 5 6 7 8 9 10 11 12 13 14 15 16 17 18 19 20 21 22 23 24 25 26 27 28 29 30 31 32 33 34 35 36 37 38 39 40 41 42 43 44 45 46 47 48 49 50
000
ASUS41 KPHI 271211
RWRPHI

REGIONAL WEATHER ROUNDUP
NATIONAL WEATHER SERVICE MOUNT HOLLY NJ
800 AM EDT MON APR 27 2015

NOTE:  "FAIR" INDICATES FEW OR NO CLOUDS BELOW 12,000 FEET WITH NO
SIGNIFICANT WEATHER AND/OR OBSTRUCTIONS TO VISIBILITY.

 * = STATION DOES NOT REPORT PRECIPITATION (E.G. RAIN, SNOW, ETC.)
        OR FOG.

NJZ015>026-271300-
SOUTHERN NEW JERSEY

CITY           SKY/WX    TMP DP  RH WIND       PRES   REMARKS
POMONA         SUNNY     50  32  50 W9        29.72R
6HR MIN TEMP:  38; 6HR MAX TEMP:  50;

MILLVILLE      PTSUNNY   51  34  52 NW8       29.73R
WRIGHTSTOWN    CLOUDY    49  33  55 NW10      29.68S
MOUNT HOLLY    MOSUNNY   49  33  54 NW6       29.72R
TRENTON        CLOUDY    48  31  51 NW9       29.71R
6HR MIN TEMP:  43; 6HR MAX TEMP:  48;


$$
NJZ001>014-271300-
NORTHERN NEW JERSEY

CITY           SKY/WX    TMP DP  RH WIND       PRES   REMARKS
SUSSEX         CLOUDY    47  32  56 CALM      29.71R
ANDOVER*         N/A     46  33  60 N6        29.70S
MORRISTOWN     CLOUDY    48  32  53 NW7       29.70R
NEWARK         CLOUDY    50  32  50 NW8       29.68S
TETERBORO      CLOUDY    49  32  52 NW7       29.67S
CALDWELL       CLOUDY    49  31  49 NW5       29.69S
SOMERVILLE     CLOUDY    49  33  54 NW8       29.69R
ALLAIRE*       CLOUDY    48  28  46 NW9       29.69R
TOMS RIVER*    CLOUDY    46  32  57 NW7       29.70S

$$
PAZ043-044-047-054-055-060>062-066>071-271300-
EASTERN PENNSYLVANIA

CITY           SKY/WX    TMP DP  RH WIND       PRES   REMARKS
PHILADELPHIA   PTSUNNY   50  31  48 N8        29.73S
6HR MIN TEMP:  48; 6HR MAX TEMP:  52;

NORTH PHILA    PTSUNNY   52  31  44 NW13      29.73S
BLUE BELL      MOSUNNY   50  34  53 NW3       29.72S
DOYLESTOWN     CLOUDY    46  50 100 NW7       29.71R
QUAKERTOWN*    CLOUDY    46  32  57 NW5       29.73R
POTTSTOWN      CLOUDY    46  33  60 W5        29.74S
LANCASTER      CLOUDY    44  35  70 W6        29.74S
COATESVILLE    CLOUDY    46  34  61 W7        29.74S
READING        PTSUNNY   47  34  60 NW3       29.73R
6HR MIN TEMP:  40; 6HR MAX TEMP:  47;

ALLENTOWN      CLOUDY    48  33  56 NW7       29.72S
6HR MIN TEMP:  40; 6HR MAX TEMP:  48;

MOUNT POCONO   CLOUDY    41  32  70 NW9       29.68R
6HR MIN TEMP:  39; 6HR MAX TEMP:  41;

HAZLETON       CLOUDY    43  32  65 NW7       29.74R
WILKES BARRE   CLOUDY    44  32  62 NW6       29.73R

$$
DEZALL-MDZ008-012-015-019-020-271300-
DELAWARE AND EASTERN MARYLAND

CITY           SKY/WX    TMP DP  RH WIND       PRES   REMARKS
WILMINGTON     CLOUDY    49  35  58 NW6       29.74S
6HR MIN TEMP:  41; 6HR MAX TEMP:  49;

DOVER          PTSUNNY   48  38  67 NW6       29.70R
GEORGETOWN     CLOUDY    46  36  68 VRB3      29.75R
6HR MIN TEMP:  37; 6HR MAX TEMP:  46;

EASTON         MOSUNNY   48  39  71 CALM      29.79R
ABERDEEN       CLOUDY    48  37  66 CALM      29.77R
PATUXENT       MOSUNNY   52  41  66 N7        29.76R
OCEAN CITY     CLOUDY    46  41  82 N5        29.74R
WALLOPS ISLAND PTSUNNY   48  40  73 N8        29.75R
CAMBRIDGE      SUNNY     52  36  54 N7        29.75R
SALISBURY      CLOUDY    45  38  76 N6        29.74R

$$
PAZ001-021-NYZ056-072-MDZ011-DCZ001-271300-
OTHER NEARBY LOCATIONS

CITY           SKY/WX    TMP DP  RH WIND       PRES   REMARKS
HARRISBURG     CLOUDY    48  34  58 NW8       29.76R
STATE COLLEGE  SUNNY     45  32  61 W8        29.77R
WILLIAMSPORT   CLOUDY    47  32  56 W8        29.75R
BINGHAMTON     CLOUDY    39  34  82 NW7       29.71R WCI  34
NEW YORK CITY  CLOUDY    50  31  48 MISG      29.70R
BALTIMORE      PTSUNNY   48  34  58 CALM      29.76R
WASHINGTON DC  MOSUNNY   53  32  44 NW12      29.79R

$$



USA.gov is the U.S. government's official web portal to all federal, state and local government web resources and services.